Погода в Сутуруохе

Россия / Республика Саха (Якутия)     68°33′05″N   146°09′46″E
темп.,
°C
ветер,
м/с
пор.,
м/с
влажн.,
%
обл.,
%
осадки,
мм/ч
давл.,
гПа
погр.,
м
26 октября, вт
вт2623:00−22всв0110025 0.0 10079
02:00−22всв1110089 0.0 10079
05:00−22в1110080 0.0 10089
08:00−22в119986 0.0 100912
11:00−18в119597 0.1 101053
14:00−17в019368 0.1 101088
17:00−20всв1110052 0.1 101110
20:00−21в1110032 0.0 101210
27 октября, ср
ср2723:00−22в1110038 0.0 101210
02:00−22вюв1110065 0.0 101310
05:00−22в1110069 0.0 101311
08:00−23в1110057 0.0 101410
11:00−21в119877 0.0 101423
14:00−18в119578 0.0 101428
17:00−20в119899 0.0 101411
20:00−20в119796 0.0 101413
28 октября, чт
чт2823:00−21в119781 0.0 101311
02:00−21в119797 0.0 101311
05:00−20в119596 0.0 101215
08:00−20в119688 0.0 101212
11:00−18вюв118887 0.0 101140
14:00−16в1185100 0.0 100944
17:00−18всв119377 0.0 100810
20:00−20св119866 0.0 100810
29 октября, пт
пт2923:00−20всв1199100 0.0 100711
02:00−18всв1196100 0.0 100619
05:00−18св1194100 0.0 100621
08:00−17св1196100 0.1 100745
11:00−16зсз0095100 0.4 100854
14:00−15с1194100 0.1 100982
17:00−15ссв1197100 0.4 101019
20:00−15с2297100 0.4 101265
30 октября, сб
сб3023:00−15с2297100 0.8 101484
02:00−16ссв2397100 0.3 101596
05:00−16с2397100 0.7 101784
08:00−16ссз1297100 0.3 101833
11:00−16ссз2497100 0.3 1020151
14:00−15с269398 0.0 1021270
17:00−18ссз2297100 0.0 102218
20:00−20ссз229997 0.0 102414